When you browse on this site, cookies collect data to enhance your experience and personalize the content and advertising you see.
Visit our Privacy Policy to learn more. By continuing to use the site, you agree to this use of cookies and data.

Stündliche Wetter Hanoi

Heute, 12 Juli, Sonntag

Zeit Temperatur Niederschläge Wind Luftdruck Luftfeuchtigkeit
00:00 +31°C° 0 mm 3 m/S 751 mmHg 71%
01:00 +31°C° 0 mm 3 m/S 751 mmHg 73%
02:00 +31°C° 0.5 mm 2 m/S 751 mmHg 75%
03:00 +30°C° 0.5 mm 2 m/S 750 mmHg 77%
04:00 +30°C° 0.5 mm 1 m/S 750 mmHg 79%
05:00 +30°C° 0.2 mm 1 m/S 750 mmHg 78%
06:00 +30°C° 0.2 mm 1 m/S 751 mmHg 78%
07:00 +30°C° 0.2 mm 1 m/S 751 mmHg 77%
08:00 +30°C° 0.1 mm 1 m/S 751 mmHg 75%
09:00 +31°C° 0.1 mm 2 m/S 752 mmHg 73%
10:00 +31°C° 0.1 mm 2 m/S 752 mmHg 70%
11:00 +32°C° 0 mm 2 m/S 752 mmHg 69%
12:00 +32°C° 0 mm 2 m/S 751 mmHg 68%
13:00 +32°C° 0 mm 2 m/S 751 mmHg 67%
14:00 +33°C° 0 mm 3 m/S 751 mmHg 67%
15:00 +33°C° 0 mm 3 m/S 751 mmHg 67%
16:00 +33°C° 0 mm 3 m/S 750 mmHg 67%
17:00 +31°C° 0 mm 2 m/S 751 mmHg 70%
18:00 +30°C° 0 mm 2 m/S 751 mmHg 74%
19:00 +29°C° 0 mm 1 m/S 751 mmHg 77%
20:00 +29°C° 0 mm 1 m/S 752 mmHg 77%
21:00 +29°C° 0 mm 1 m/S 752 mmHg 78%
22:00 +29°C° 0 mm 1 m/S 753 mmHg 78%
23:00 +29°C° 0.1 mm 1 m/S 753 mmHg 78%

Morgen, 13 Juli, Montag

Zeit Temperatur Niederschläge Wind Luftdruck Luftfeuchtigkeit
00:00 +29°C° 0.1 mm 1 m/S 753 mmHg 79%
01:00 +29°C° 0.1 mm 1 m/S 753 mmHg 79%
02:00 +28°C° 1 mm 1 m/S 753 mmHg 82%
03:00 +26°C° 1 mm 0 m/S 753 mmHg 84%
04:00 +26°C° 1 mm 0 m/S 753 mmHg 86%
05:00 +28°C° 0.1 mm 1 m/S 753 mmHg 84%
06:00 +29°C° 0.1 mm 1 m/S 753 mmHg 82%
07:00 +29°C° 0.1 mm 1 m/S 753 mmHg 80%
08:00 +31°C° 0 mm 1 m/S 753 mmHg 73%
09:00 +33°C° 0 mm 1 m/S 753 mmHg 66%
10:00 +35°C° 0 mm 1 m/S 754 mmHg 59%
11:00 +36°C° 0 mm 1 m/S 753 mmHg 54%
12:00 +39°C° 0 mm 1 m/S 753 mmHg 49%
13:00 +40°C° 0 mm 1 m/S 752 mmHg 44%
14:00 +39°C° 0 mm 2 m/S 752 mmHg 46%
15:00 +39°C° 0 mm 3 m/S 751 mmHg 48%
16:00 +38°C° 0 mm 4 m/S 751 mmHg 49%
17:00 +37°C° 0.2 mm 4 m/S 751 mmHg 56%
18:00 +35°C° 0.2 mm 4 m/S 751 mmHg 63%
19:00 +33°C° 0.2 mm 4 m/S 752 mmHg 70%
20:00 +33°C° 0.1 mm 4 m/S 752 mmHg 74%
21:00 +31°C° 0.1 mm 3 m/S 753 mmHg 78%
22:00 +31°C° 0.1 mm 3 m/S 754 mmHg 82%
23:00 +30°C° 0.8 mm 3 m/S 753 mmHg 83%

übermorgen, 14 Juli, Dienstag

Zeit Temperatur Niederschläge Wind Luftdruck Luftfeuchtigkeit
00:00 +30°C° 0.8 mm 3 m/S 753 mmHg 84%
01:00 +30°C° 0.8 mm 2 m/S 753 mmHg 86%
02:00 +30°C° 0.6 mm 2 m/S 753 mmHg 86%
03:00 +30°C° 0.6 mm 2 m/S 753 mmHg 87%
04:00 +29°C° 0.6 mm 2 m/S 753 mmHg 87%
05:00 +30°C° 0.4 mm 2 m/S 753 mmHg 85%
06:00 +31°C° 0.4 mm 2 m/S 753 mmHg 82%
07:00 +31°C° 0.4 mm 1 m/S 754 mmHg 79%
08:00 +34°C° 0.2 mm 2 m/S 754 mmHg 72%
09:00 +35°C° 0.2 mm 2 m/S 754 mmHg 64%
10:00 +37°C° 0.2 mm 2 m/S 754 mmHg 57%
11:00 +38°C° 0 mm 2 m/S 753 mmHg 53%
12:00 +39°C° 0 mm 2 m/S 753 mmHg 48%
13:00 +40°C° 0 mm 2 m/S 752 mmHg 44%
14:00 +40°C° 0 mm 3 m/S 751 mmHg 45%
15:00 +39°C° 0 mm 3 m/S 751 mmHg 45%
16:00 +39°C° 0 mm 3 m/S 750 mmHg 46%
17:00 +37°C° 0 mm 4 m/S 750 mmHg 53%
18:00 +36°C° 0 mm 4 m/S 751 mmHg 59%
19:00 +34°C° 0 mm 5 m/S 751 mmHg 66%
20:00 +33°C° 0 mm 4 m/S 752 mmHg 71%
21:00 +33°C° 0 mm 4 m/S 752 mmHg 75%
22:00 +32°C° 0 mm 4 m/S 753 mmHg 80%
23:00 +31°C° 0.1 mm 3 m/S 753 mmHg 81%

15 Juli, Mittwoch

Zeit Temperatur Niederschläge Wind Luftdruck Luftfeuchtigkeit
00:00 +30°C° 0.1 mm 3 m/S 753 mmHg 82%
01:00 +30°C° 0.1 mm 3 m/S 753 mmHg 83%
02:00 +30°C° 0.3 mm 3 m/S 752 mmHg 84%
03:00 +30°C° 0.3 mm 3 m/S 752 mmHg 84%
04:00 +29°C° 0.3 mm 2 m/S 752 mmHg 85%
05:00 +30°C° 0.1 mm 3 m/S 752 mmHg 83%
06:00 +30°C° 0.1 mm 3 m/S 752 mmHg 82%
07:00 +31°C° 0.1 mm 3 m/S 753 mmHg 80%
08:00 +33°C° 0 mm 3 m/S 753 mmHg 73%
09:00 +35°C° 0 mm 3 m/S 753 mmHg 67%
10:00 +36°C° 0 mm 3 m/S 753 mmHg 60%
11:00 +37°C° 0.3 mm 3 m/S 752 mmHg 57%
12:00 +38°C° 0.3 mm 3 m/S 751 mmHg 54%
13:00 +38°C° 0.3 mm 4 m/S 751 mmHg 52%
14:00 +40°C° 0.1 mm 4 m/S 750 mmHg 51%
15:00 +40°C° 0.1 mm 4 m/S 749 mmHg 50%
16:00 +40°C° 0.1 mm 4 m/S 749 mmHg 49%
17:00 +37°C° 0 mm 4 m/S 749 mmHg 57%
18:00 +36°C° 0 mm 5 m/S 749 mmHg 64%
19:00 +34°C° 0 mm 5 m/S 749 mmHg 71%
20:00 +33°C° 0 mm 5 m/S 750 mmHg 74%
21:00 +33°C° 0 mm 4 m/S 751 mmHg 77%
22:00 +32°C° 0 mm 4 m/S 751 mmHg 80%
23:00 +32°C° 0 mm 4 m/S 751 mmHg 81%

16 Juli, Donnerstag

Zeit Temperatur Niederschläge Wind Luftdruck Luftfeuchtigkeit
00:00 +31°C° 0 mm 3 m/S 751 mmHg 82%
01:00 +30°C° 0 mm 3 m/S 751 mmHg 83%
02:00 +30°C° 0 mm 3 m/S 751 mmHg 84%
03:00 +30°C° 0 mm 3 m/S 750 mmHg 85%
04:00 +30°C° 0 mm 3 m/S 750 mmHg 86%
05:00 +30°C° 0 mm 3 m/S 751 mmHg 84%
06:00 +31°C° 0 mm 3 m/S 751 mmHg 83%
07:00 +31°C° 0 mm 3 m/S 751 mmHg 82%
08:00 +33°C° 0 mm 3 m/S 751 mmHg 77%
09:00 +34°C° 0 mm 3 m/S 751 mmHg 73%
10:00 +35°C° 0 mm 3 m/S 751 mmHg 68%
11:00 +37°C° 0 mm 3 m/S 751 mmHg 60%
12:00 +39°C° 0 mm 3 m/S 750 mmHg 51%
13:00 +42°C° 0 mm 3 m/S 750 mmHg 43%
14:00 +41°C° 0 mm 4 m/S 749 mmHg 43%
15:00 +41°C° 0 mm 4 m/S 748 mmHg 43%
16:00 +41°C° 0 mm 5 m/S 748 mmHg 43%
17:00 +39°C° 0 mm 5 m/S 748 mmHg 50%
18:00 +36°C° 0 mm 5 m/S 749 mmHg 57%
19:00 +34°C° 0 mm 5 m/S 749 mmHg 64%
20:00 +34°C° 0 mm 5 m/S 750 mmHg 68%
21:00 +33°C° 0 mm 4 m/S 750 mmHg 72%
22:00 +32°C° 0 mm 4 m/S 751 mmHg 75%
23:00 +31°C° 0 mm 3 m/S 751 mmHg 77%

17 Juli, Freitag

Zeit Temperatur Niederschläge Wind Luftdruck Luftfeuchtigkeit
00:00 +31°C° 0 mm 3 m/S 751 mmHg 78%
01:00 +31°C° 0 mm 3 m/S 750 mmHg 79%
02:00 +31°C° 0.1 mm 3 m/S 750 mmHg 80%
03:00 +31°C° 0.1 mm 3 m/S 750 mmHg 82%
04:00 +30°C° 0.1 mm 2 m/S 750 mmHg 83%
05:00 +31°C° 0.3 mm 2 m/S 750 mmHg 82%
06:00 +31°C° 0.3 mm 2 m/S 751 mmHg 81%
07:00 +31°C° 0.3 mm 2 m/S 751 mmHg 80%
08:00 +34°C° 0 mm 2 m/S 751 mmHg 74%
09:00 +35°C° 0 mm 2 m/S 751 mmHg 68%
10:00 +36°C° 0 mm 2 m/S 751 mmHg 61%
11:00 +38°C° 0 mm 2 m/S 751 mmHg 56%
12:00 +39°C° 0 mm 2 m/S 750 mmHg 50%
13:00 +40°C° 0 mm 3 m/S 749 mmHg 45%
14:00 +42°C° 0 mm 3 m/S 749 mmHg 43%
15:00 +42°C° 0 mm 4 m/S 748 mmHg 42%
16:00 +42°C° 0 mm 5 m/S 748 mmHg 41%
17:00 +40°C° 0 mm 5 m/S 748 mmHg 47%
18:00 +37°C° 0 mm 5 m/S 749 mmHg 54%
19:00 +35°C° 0 mm 5 m/S 749 mmHg 60%
20:00 +34°C° 0.1 mm 5 m/S 750 mmHg 64%
21:00 +33°C° 0.1 mm 4 m/S 750 mmHg 68%
22:00 +33°C° 0.1 mm 4 m/S 751 mmHg 73%
23:00 +33°C° 0.1 mm 4 m/S 751 mmHg 74%
Mehr zeigen